EW1631 Weather Reports


time (UTC)temp
F
wind
direction
speed
knots
gust
knots
rain 1hr
in
rain 24hr
in
rain mn
in
humidity
%
barometer
mb
20260502224533 97 77 6.1 12.2 0.00 0.00 0.00 8 1005.1
20260502223030 97 83 7.8 11.3 0.00 0.00 0.00 8 1005.6
20260502221511 97 128 7.8 11.3 0.00 0.00 0.00 8 1005.9
20260502220009 96 111 4.3 9.6 0.00 0.00 0.00 8 1006.2
20260502214549 97 93 4.3 9.6 0.00 0.00 0.00 8 1006.4
20260502213049 96 123 6.1 14.8 0.00 0.00 0.00 8 1006.5
20260502211528 96 118 4.3 13.9 0.00 0.00 0.00 8 1006.6
20260502210027 97 124 5.2 9.6 0.00 0.00 0.00 7 1007.0
20260502204507 97 102 4.3 8.7 0.00 0.00 0.00 7 1007.3
20260502203005 97 115 9.6 13.0 0.00 0.00 0.00 7 1007.4
20260502201555 96 83 2.6 9.6 0.00 0.00 0.00 7 1007.5
20260502200053 96 57 6.1 12.2 0.00 0.00 0.00 7 1007.7
20260502194550 97 126 4.3 9.6 0.00 0.00 0.00 8 1008.1
20260502193049 96 84 4.3 8.7 0.00 0.00 0.00 7 1008.4
20260502191556 96 162 5.2 10.4 0.00 0.00 0.00 8 1008.5
20260502190050 95 100 1.7 9.6 0.00 0.00 0.00 8 1008.6
20260502184548 95 106 4.3 9.6 0.00 0.00 0.00 8 1008.9
20260502183052 94 81 2.6 7.8 0.00 0.00 0.00 8 1009.0
20260502181519 94 136 2.6 9.6 0.00 0.00 0.00 9 1009.1
20260502163101 90 150 2.6 4.3 0.00 0.00 0.00 14 1009.1
20260502161536 90 188 0.9 3.5 0.00 0.00 0.00 15 1009.1
20260502151545 83 202 0.0 0.0 0.00 0.00 0.00 19 1009.0
20260502123041 75 312 4.3 8.7 0.00 0.00 0.00 23 1007.5
20260502121521 74 311 0.9 4.3 0.00 0.00 0.00 24 1007.2
20260502114501 75 298 0.9 3.5 0.00 0.00 0.00 24 1007.0
20260502113059 76 44 0.0 7.0 0.00 0.00 0.00 24 1007.0
20260502111606 76 306 4.3 8.7 0.00 0.00 0.00 23 1006.9
20260502110039 75 302 4.3 7.0 0.00 0.00 0.00 24 1007.0
20260502104538 75 324 3.5 7.0 0.00 0.00 0.00 25 1007.0
20260502103017 76 275 2.6 4.3 0.00 0.00 0.00 24 1007.0
20260502101526 75 287 3.5 7.0 0.00 0.00 0.00 24 1006.9
20260502091531 77 238 0.0 0.0 0.00 0.00 0.00 23 1007.3
20260502071503 80 318 1.7 5.2 0.00 0.00 0.00 25 1007.1
20260502070045 81 265 2.6 6.1 0.00 0.00 0.00 25 1007.0
20260502064543 82 277 4.3 8.7 0.00 0.00 0.00 24 1007.3
20260502063029 82 311 3.5 5.2 0.00 0.00 0.00 24 1007.3
20260502061525 83 324 2.6 7.0 0.00 0.00 0.00 25 1007.4
20260502060007 83 329 1.7 7.0 0.00 0.00 0.00 29 1007.3
20260502054507 83 346 3.5 7.8 0.00 0.00 0.00 29 1006.9
20260502053101 84 340 1.7 8.7 0.00 0.00 0.00 29 1007.0
20260502051603 85 301 2.6 7.8 0.00 0.00 0.00 27 1007.0
20260502050037 86 329 2.6 7.8 0.00 0.00 0.00 27 1006.9
20260502044536 86 317 7.8 10.4 0.00 0.00 0.00 26 1006.9
20260502043013 86 304 5.2 9.6 0.00 0.00 0.00 25 1006.6
20260502041513 87 290 4.3 9.6 0.00 0.00 0.00 24 1006.3
20260502040055 88 304 4.3 7.8 0.00 0.00 0.00 23 1006.4
20260502034555 88 337 2.6 7.8 0.00 0.00 0.00 22 1006.0
20260502033050 89 309 3.5 7.8 0.00 0.00 0.00 20 1005.8
20260502031537 89 291 2.6 7.8 0.00 0.00 0.00 19 1005.7
20260502030019 90 266 3.5 9.6 0.00 0.00 0.00 19 1005.4
20260502024518 91 234 4.3 11.3 0.00 0.00 0.00 19 1005.2
20260502023101 91 266 4.3 8.7 0.00 0.00 0.00 19 1005.1
20260502021600 93 261 5.2 9.6 0.00 0.00 0.00 18 1005.0
20260502020052 95 226 3.5 7.8 0.00 0.00 0.00 15 1004.9
20260502014542 95 192 1.7 3.5 0.00 0.00 0.00 10 1004.9
20260502013025 95 194 0.0 3.5 0.00 0.00 0.00 10 1004.9
20260502011525 96 127 2.6 4.3 0.00 0.00 0.00 10 1004.8
20260502010006 98 67 0.9 3.5 0.00 0.00 0.00 9 1004.7
20260502004506 99 316 1.7 3.5 0.00 0.00 0.00 9 1004.6
20260502003048 99 24 3.5 7.0 0.00 0.00 0.00 9 1004.7
20260502001558 100 92 0.0 4.3 0.00 0.00 0.00 9 1004.7
20260502000030 100 360 0.9 5.2 0.00 0.00 0.00 9 1004.9
20260501234525 99 36 1.7 7.0 0.00 0.00 0.00 10 1004.9
20260501233007 97 30 2.6 7.0 0.00 0.00 0.00 10 1004.9
20260501231505 96 111 7.0 9.6 0.00 0.00 0.00 10 1005.0
20260501230049 96 69 2.6 9.6 0.00 0.00 0.00 10 1005.2
20260501224548 98 102 2.6 7.0 0.00 0.00 0.00 10 1005.4